Homer, AK

8:48 AM AKDT on April 27, 2017 (GMT -0800)
Homer

Weather History for PAHO - January, 2014

Change the Weather History Date:

Tuesday, January 21, 2014

  Actual Average Record
Temperature  
Mean Temperature 41 °F -  
Max Temperature 46 °F 30 °F 46 °F (2014)
Min Temperature 36 °F 19 °F -9 °F (1971)
Degree Days  
Heating Degree Days 24    
Moisture  
Dew Point 33 °F    
Average Humidity 69    
Maximum Humidity 83    
Minimum Humidity 56    
Precipitation  
Precipitation 0.03 in - - ()
Sea Level Pressure  
Sea Level Pressure 29.46 in    
Wind  
Wind Speed 7 mph (East)    
Max Wind Speed 12 mph    
Max Gust Speed 21 mph    
Visibility 10 miles    
Events Rain    
Averages and records for this station are not official NWS values.
T = Trace of Precipitation, MM = Missing Value Source: NWS Daily Summary

Daily Weather History Graph

Daily Weather History Graph

Search for Another Location

Airport or City:

Trip Planner

Search our weather history database for the weather conditions in past years. The results will help you decide how hot, cold, wet, or windy it might be!

Date:

Astronomy

Jan. 21, 2014 Rise Set
Actual Time 9:40 AM AKST 4:55 PM AKST
Civil Twilight 8:50 AM AKST 5:45 PM AKST
Nautical Twilight 7:58 AM AKST 6:37 PM AKST
Astronomical Twilight 7:09 AM AKST 7:26 PM AKST
Moon No Moon Rise 10:44 AM AKST (1/21)
Length of Visible Light 8h 54m
Length of Day
7h 14m
Waning Gibbous, 73% of the Moon is Illuminated
Jan 21
Waning Gibbous
Jan 23
Last Quarter
Jan 30
New
Feb 6
First Quarter
Feb 14
Full

Hourly Weather History & Observations

Time (AKST) Temp. Windchill Dew Point Humidity Pressure Visibility Wind Dir Wind Speed Gust Speed Precip Events Conditions
12:53 AM 45.0 °F 40.1 °F 32.0 °F 60% 29.45 in 10.0 mi East 9.2 mph - N/A   Overcast
1:53 AM 45.0 °F 39.7 °F 32.0 °F 60% 29.41 in 10.0 mi ENE 10.4 mph - N/A   Overcast
3:53 AM 43.0 °F 38.2 °F 32.0 °F 65% 29.34 in 10.0 mi NE 8.1 mph - N/A   Overcast
4:53 AM 44.1 °F 38.6 °F 32.0 °F 63% 29.31 in 10.0 mi NNE 10.4 mph - N/A   Overcast
5:53 AM 44.1 °F 40.1 °F 32.0 °F 63% 29.29 in 10.0 mi ENE 6.9 mph - N/A   Overcast
6:53 AM 43.0 °F 39.5 °F 33.1 °F 68% 29.29 in 10.0 mi East 5.8 mph - N/A   Mostly Cloudy
7:53 AM 45.0 °F 41.2 °F 32.0 °F 60% 29.29 in 10.0 mi East 6.9 mph - N/A   Overcast
8:53 AM 46.0 °F 41.9 °F 34.0 °F 63% 29.34 in 10.0 mi SSE 8.1 mph - N/A   Overcast
9:53 AM 45.0 °F 42.6 °F 34.0 °F 65% 29.37 in 10.0 mi ESE 4.6 mph - N/A   Overcast
10:53 AM 46.0 °F 42.5 °F 35.1 °F 66% 29.40 in 6.0 mi Variable 6.9 mph - 0.00 in Rain Rain
11:53 AM 46.0 °F 44.8 °F 35.1 °F 66% 29.42 in 10.0 mi ESE 3.5 mph - 0.01 in   Overcast
12:53 PM 46.9 °F - 35.1 °F 63% 29.44 in 10.0 mi South 11.5 mph 20.7 mph 0.00 in   Overcast
1:53 PM 46.0 °F 41.4 °F 30.9 °F 56% 29.47 in 10.0 mi South 9.2 mph 17.3 mph N/A   Partly Cloudy
2:53 PM 45.0 °F 42.6 °F 32.0 °F 60% 29.50 in 10.0 mi SE 4.6 mph - N/A   Overcast
3:53 PM 44.1 °F 40.8 °F 34.0 °F 68% 29.52 in 9.0 mi ESE 5.8 mph - 0.02 in Rain Light Rain
4:53 PM 42.1 °F - 34.0 °F 73% 29.55 in 10.0 mi Calm Calm - 0.00 in   Overcast
5:53 PM 42.1 °F 37.7 °F 36.0 °F 79% 29.58 in 10.0 mi West 6.9 mph - 0.00 in Rain Light Rain
6:53 PM 39.9 °F 36.7 °F 35.1 °F 83% 29.59 in 10.0 mi WNW 4.6 mph - 0.00 in   Partly Cloudy
7:53 PM 37.9 °F 34.4 °F 33.1 °F 83% 29.60 in 10.0 mi WNW 4.6 mph - N/A   Clear
8:53 PM 39.0 °F 35.7 °F 33.1 °F 79% 29.62 in 10.0 mi West 4.6 mph - N/A   Clear
9:53 PM 39.0 °F 36.8 °F 33.1 °F 79% 29.62 in 10.0 mi NW 3.5 mph - N/A   Clear
10:53 PM 36.0 °F 31.1 °F 30.9 °F 82% 29.62 in 10.0 mi East 5.8 mph - N/A   Partly Cloudy
11:53 PM 37.9 °F - 33.1 °F 83% 29.63 in 10.0 mi Calm Calm - N/A   Overcast